sat.trackr.live / text

‹ back to catalog

STARLINK-36215

NORAD 67100 · 2025-298AB

PAYLOAD ACTIVE UNKNOWN

§ Identity

Operator
Country
US
Launch date
2025-12-14
Launch site
AFWTR
Launch vehicle
Mass (kg)
RCS (m²)

Purposes: comms

External: N2YO · Heavens-Above · Gunter

§ Orbital elements

Epoch: 2026-09-20T04:52:49.350144Z

Period
96.11 min
Inclination
69.9978°
Eccentricity
0.0005462
Mean motion
14.98356965 rev/d
Perigee alt
568.2 km
Apogee alt
575.8 km
Semi-major
6,950.1 km
B*
4.4082e-4
RAAN
244.0068°
Arg perigee
270.4963°
Mean anomaly
89.5571°
Rev number
4,235

§ Raw data

STARLINK-362151 67100U 25298AB  26263.20334896  .00005175  00000+0  44082-3 0  99922 67100  69.9978 244.0068 0005462 270.4963  89.5571 14.98356965 42351

JSON: /api/v1/satellites/67100 · /tle

For live sub-satellite position, see the globe view (requires WebGL).

§ Visibility from observer

Set your observer location to see the next 7 days of passes ≥ 10°. The values pass through the URL so the page stays shareable.

No JS? Fill the form by hand. The geolocation button needs JavaScript.